User: anonymous   Login
Location: Unspecified
(0.0000°N, 0.0000°E)
Time: 17:08:04
(UTC+00:00)
Language:

COSMOS 2468 - Orbit

View from above orbital plane
View from above orbital plane
View from above satellite
View from above satellite

Ground track
Ground track

The orbit data is extracted from the following two-line orbital elements,

1 37154U 10043C   17265.07146250  .00000028  00000-0  12970-3 0  9996
2 37154  82.4579 259.4175 0016026  67.4323 292.8453 12.43635429319397
Epoch (UTC): 22 September 2017 01:42:54
Eccentricity: 0.0016026
inclination: 82.4579°
perigee height: 1478 km
apogee height: 1504 km
right ascension of ascending node: 259.4175°
argument of perigee: 67.4323°
revolutions per day: 12.43635429
mean anomaly at epoch: 292.8453°
orbit number at epoch: 31939

The dashed part of the orbit path shows where the satellite is in the earth's shadow,  

DLR